Location: G�yn�k
(36.6721°N, 30.5542°E)
Time: 23:22:33
(UTC+00:00)

ADEOS II - Pass Details

Date: 07 June 2020
Orbit: 800 x 801 km, 98.5° (Epoch: 07 July)

Event Time Altitude Azimuth Distance (km) Brightness Sun altitude
Rises 01:04:43 0° 2° (N) 3,314 6.1 -15.8°
Reaches altitude 10° 01:07:14 10° 353° (N) 2,380 5.1 -15.5°
Maximum altitude 01:11:54 34° 291° (WNW) 1,305 3.0 -14.8°
Enters shadow 01:14:39 20° 242° (WSW) 1,754 3.3 -14.4°
